Change the Weather History Date:

Saturday, March 23, 2013

  Actual Average Record
Temperature  
Mean Temperature 32 °F 40 °F  
Max Temperature 41 °F 49 °F 73 °F (1988)
Min Temperature 23 °F 31 °F 2 °F (1888)
Degree Days  
Heating Degree Days 33 25  
Month to date heating degree days 744 676  
Since 1 July heating degree days 5029 5229  
Cooling Degree Days 0 0  
Month to date cooling degree days 0 0  
Year to date cooling degree days 0 0  
Moisture  
Dew Point 21 °F    
Average Humidity 65    
Maximum Humidity 81    
Minimum Humidity 48    
Precipitation  
Precipitation 0.00 in 0.08 in 0.91 in (1938)
Month to date precipitation 0.65 1.64  
Year to date precipitation 6.93 5.62  
Snow  
Snow 0.00 in 0.20 in 5.30 in (1956)
Month to date snowfall 2.7 5.7  
Since 1 July snowfall 47.2 39.6  
Snow Depth 0.00 in    
Sea Level Pressure  
Sea Level Pressure 30.08 in    
Wind  
Wind Speed 4 mph (NW)    
Max Wind Speed 10 mph    
Max Gust Speed 26 mph    
Visibility 10 miles    
Events      
T = Trace of Precipitation, MM = Missing Value Source: NWS Daily Summary

Daily Weather History Graph

Daily Weather History Graph

Search for Another Location

Airport or City:

Trip Planner

Search our weather history database for the weather conditions in past years. The results will help you decide how hot, cold, wet, or windy it might be!

Date:

Astronomy

Mar. 23, 2013 Rise Set
Actual Time 7:30 AM EDT 7:49 PM EDT
Civil Twilight 7:03 AM EDT 8:17 PM EDT
Nautical Twilight 6:30 AM EDT 8:50 PM EDT
Astronomical Twilight 5:56 AM EDT 9:24 PM EDT
Moon 4:11 PM EDT (3/23) 5:10 AM EDT (3/23)
Length of Visible Light 13h 14m
Length of Day
12h 18m
Waxing Gibbous, 85% of the Moon is Illuminated
Mar 23
Waxing Gibbous
Mar 27
Full
Apr 3
Last Quarter
Apr 10
New
Apr 18
First Quarter

Hourly Weather History & Observations

Time (EDT) Temp. Windchill Dew Point Humidity Pressure Visibility Wind Dir Wind Speed Gust Speed Precip Events Conditions
12:53 AM 30.0 °F - 21.0 °F 69% 30.05 in 10.0 mi Calm Calm - N/A   Scattered Clouds
1:53 AM 28.9 °F 25.2 °F 19.9 °F 69% 30.05 in 10.0 mi West 3.5 mph - N/A   Scattered Clouds
2:53 AM 27.0 °F 23.0 °F 19.9 °F 75% 30.05 in 10.0 mi WNW 3.5 mph - N/A   Scattered Clouds
3:53 AM 27.0 °F 21.6 °F 19.9 °F 75% 30.04 in 10.0 mi NNW 4.6 mph - N/A   Scattered Clouds
4:53 AM 26.1 °F - 19.9 °F 78% 30.04 in 10.0 mi Calm Calm - N/A   Scattered Clouds
5:53 AM 26.1 °F 21.9 °F 19.0 °F 75% 30.04 in 10.0 mi WSW 3.5 mph - N/A   Scattered Clouds
6:53 AM 25.0 °F - 19.0 °F 78% 30.06 in 10.0 mi Calm Calm - N/A   Scattered Clouds
7:53 AM 24.1 °F 18.2 °F 19.0 °F 81% 30.08 in 7.0 mi West 4.6 mph - N/A   Scattered Clouds
8:53 AM 30.0 °F 25.2 °F 23.0 °F 75% 30.09 in 9.0 mi WNW 4.6 mph - N/A   Mostly Cloudy
9:53 AM 33.1 °F 26.9 °F 23.0 °F 66% 30.10 in 10.0 mi NNW 6.9 mph - N/A   Overcast
10:27 AM 33.8 °F 27.0 °F 21.2 °F 60% 30.09 in 10.0 mi North 8.1 mph - N/A   Overcast
10:53 AM 33.1 °F 28.7 °F 19.9 °F 59% 30.12 in 10.0 mi NNW 4.6 mph - N/A   Overcast
11:53 AM 35.1 °F 32.2 °F 19.9 °F 54% 30.12 in 10.0 mi WNW 3.5 mph - N/A   Overcast
12:49 PM 35.6 °F - 19.4 °F 52% 30.10 in 10.0 mi Calm Calm - N/A   Overcast
12:53 PM 36.0 °F - 19.9 °F 52% 30.12 in 10.0 mi Calm Calm - N/A   Overcast
1:53 PM 37.9 °F 32.1 °F 21.0 °F 51% 30.11 in 10.0 mi NNW 8.1 mph 16.1 mph N/A   Overcast
2:53 PM 37.0 °F 33.3 °F 21.9 °F 54% 30.10 in 10.0 mi West 4.6 mph - N/A   Overcast
3:53 PM 39.9 °F 37.8 °F 21.9 °F 49% 30.08 in 10.0 mi Variable 3.5 mph - N/A   Overcast
4:53 PM 39.0 °F - 21.0 °F 49% 30.09 in 10.0 mi Calm Calm - N/A   Mostly Cloudy
5:53 PM 39.9 °F 35.8 °F 21.0 °F 47% 30.09 in 10.0 mi West 5.8 mph - N/A   Scattered Clouds
6:53 PM 39.9 °F 35.1 °F 21.0 °F 47% 30.08 in 10.0 mi Variable 6.9 mph - N/A   Partly Cloudy
7:53 PM 36.0 °F 30.3 °F 21.0 °F 55% 30.07 in 10.0 mi West 6.9 mph - N/A   Scattered Clouds
8:53 PM 34.0 °F 31.0 °F 23.0 °F 64% 30.09 in 10.0 mi East 3.5 mph - N/A   Scattered Clouds
9:53 PM 34.0 °F - 23.0 °F 64% 30.11 in 10.0 mi Calm Calm - N/A   Overcast
10:53 PM 34.0 °F 28.8 °F 24.1 °F 67% 30.09 in 10.0 mi ENE 5.8 mph - N/A   Mostly Cloudy
11:53 PM 32.0 °F 27.5 °F 23.0 °F 69% 30.07 in 10.0 mi NE 4.6 mph - N/A   Partly Cloudy